Location: Shandelee
(41.8790°N, 74.8713°W)
Time: 12:24:53
(UTC+00:00)

COSMO-SKYMED 1 - Pass Details

Date: 29 October 2020
Orbit: 621 x 623 km, 97.9° (Epoch: 01 December)

Event Time Altitude Azimuth Distance (km) Brightness Sun altitude
Rises 23:30:55 0° 7° (N) 2,912 5.9 -18.0°
Reaches altitude 10° 23:33:09 10° 2° (N) 2,001 5.1 -18.4°
Maximum altitude 23:37:21 49° 287° (WNW) 805 3.5 -19.2°
Drops below altitude 10° 23:41:31 10° 213° (SSW) 1,985 5.6 -20.0°
Sets 23:43:44 0° 208° (SSW) 2,887 6.4 -20.4°
